Regional Weather Roundup
Issued by NWS Goodland, KS

Home | Current Version | Previous Version | Graphics & Text | Print | Product List | Glossary On
Versions: 1 2 3 4 5 6 7 8 9 10 11 12 13 14 15 16 17 18 19 20 21 22 23 24 25 26 27 28 29 30 31 32 33 34 35 36 37 38 39 40 41 42 43 44 45 46 47 48 49 50
000
ASUS43 KGLD 311259
RWRGLD

GOODLAND FORECAST AREA HOURLY WEATHER ROUNDUP
NATIONAL WEATHER SERVICE GOODLAND KS
600 AM MST SAT JAN 31 2015

...OFFICIAL OBSERVATIONS...

CITY           SKY/WX    TMP DP  RH WIND       PRES   REMARKS
GOODLAND KS    CLOUDY    34  34 100 S9        29.91S FOG
HILL CITY KS   CLOUDY    34  32  92 S8        30.01F
IMPERIAL NEB   CLOUDY    32  31  96 E6        29.94F FOG
MCCOOK NEB     CLOUDY    34  32  92 SE7       29.97F FOG
AKRON CO       FOG       30  30 100 N3        29.90S VSB 1/4
BURLINGTON CO  CLOUDY    31  29  92 SW5       29.90S
LIMON CO       CLOUDY    27  25  92 NW10      29.88F WCI  17
$$

...UNOFFICIAL OBSERVATIONS...

CITY           SKY/WX    TMP DP  RH WIND       PRES   REMARKS
GOVE KS          N/A     36  32  85 MISG        N/A
SHARON SPRINGS   N/A     34  33  96 S8          N/A
KIT CARSON CO    N/A     33  30  90 MISG        N/A
YUMA CO          N/A     33  30  90 N5          N/A
$$


USA.gov is the U.S. government's official web portal to all federal, state and local government web resources and services.